Regional Weather Roundup
Issued by NWS

Home | Current Version | Previous Version | Text Only | Print | Product List | Glossary On
Versions: 1 2 3 4 5 6 7 8 9 10 11 12 13 14 15 16 17 18 19 20 21 22 23 24 25 26 27 28 29 30 31 32 33 34 35 36 37 38 39 40 41 42 43 44 45 46 47 48 49 50
000
ASUS44 KFWD 250903
RWRTX
NORTH TEXAS HOURLY WEATHER ROUNDUP
NATIONAL WEATHER SERVICE FORT WORTH TX
400 AM CDT FRI MAY 25 2018

NOTE: "FAIR" INDICATES FEW OR NO CLOUDS BELOW 12,000 FEET WITH NO
SIGNIFICANT WEATHER AND/OR OBSTRUCTIONS TO VISIBILITY.

TXZ118-119-251000-
DALLAS/FORT WORTH METROPLEX

CITY           SKY/WX    TMP DP  RH WIND       PRES   REMARKS
DFW AIRPORT    FAIR      76  70  82 S12       29.95F
DALLAS LOVE    FAIR      78  70  76 S9        29.96F
FTW MEACHAM    FAIR      79  70  74 S10       29.96F
DAL-EXECUTIVE  FAIR      76  69  79 S8        29.96F
FTW-ALLIANCE   FAIR      77  69  76 S9        29.96S
FTW-NAS-JRB    MOCLDY    77  68  73 S10       29.96F
FTW-SPINKS     FAIR      75  68  79 S7        29.98F
ARLINGTON      FAIR      74  71  91 S7        29.97S
GRAND PRAIRIE  FAIR      76  68  77 S6        29.98F
ADDISON        FAIR      77  69  77 S6        29.99S
MESQUITE       FAIR      71  69  92 S5        29.97F
LANCASTER      FAIR      73  69  88 S3        29.98F
$$

TXZ091>094-102>105-117-120-121-131>134-251000-
NORTH CENTRAL TEXAS

CITY           SKY/WX    TMP DP  RH WIND       PRES   REMARKS
SHRMAN/DENISON FAIR      74  66  76 SE10      29.98F
GAINESVILLE    FAIR      70  66  88 S5        29.98F
BOWIE          FAIR      72  67  86 S7        29.97F
BRIDGEPORT     FAIR      75  66  75 S6        29.98F
DECATUR        FAIR      76  68  76 S12G20    29.97F
DENTON         FAIR      73  68  84 S7        29.96S
MCKINNEY       FAIR      73  69  87 S7        29.97F
BONHAM         FAIR      70  67  90 S5        29.98F
GREENVILLE     FAIR      75  70  83 SE3       29.99S
ROCKWALL       FAIR      74  70  88 S5        29.98F
TERRELL        FAIR      74  69  85 S3        29.98F
WAXAHACHIE     FAIR      72  72  99 SE3       29.99F
CLEBURNE       FAIR      73  72  94 S7        30.00S
GRANBURY       FAIR      75  68  80 SE5       29.98F
$$

TXZ083>090-098>101-113>116-127>130-139>142-154-155-251000-
WESTERN NORTH TEXAS

CITY           SKY/WX    TMP DP  RH WIND       PRES   REMARKS
WICHITA FALLS  FAIR      72  65  78 S10       29.94F
WF-KICKAPOO    FAIR      73  66  81 S13       29.96F
VERNON         FAIR      73  66  78 S6        29.94F
ABILENE        FAIR      70  63  78 S7        29.98F
ABILENE-DYESS  FAIR      71  59  64 S8        29.97F
GRAHAM           N/A     73  64  73 SE5       29.95F
BRECKENRIDGE   FAIR      76  64  65 S8        29.96F
CISCO          FAIR      70  64  83 SE9       30.00S
EASTLAND       FAIR      70  65  82 S5        29.98F
RANGER         FAIR      73  65  78 S8        29.99F
MINERAL WELLS  FAIR      72  67  84 SE7       29.96F
STEPHENVILLE   FAIR      69  65  85 S5        30.02S
COMANCHE       FAIR      71  67  86 S5        30.00S
BROWNWOOD      FAIR      73  66  78 SE6       29.99F
COLEMAN        FAIR      72  60  67 S3        29.99F
BRADY          FAIR      70  63  78 SE5       30.01S
$$

TXZ143>147-156>162-174-175-251000-
CENTRAL TEXAS

CITY           SKY/WX    TMP DP  RH WIND       PRES   REMARKS
WACO           FAIR      74  69  85 S9        29.98F
WACO-MCGREGOR  FAIR      72  69  90 S7        29.99S
HILLSBORO      FAIR      74  71  90 S8        29.98S
CORSICANA      FAIR      72  70  93 S6        29.99F
MEXIA          FAIR      71  69  93 S5        29.98S
HEARNE         FAIR      72  72 100 CALM      30.00S
CAMERON        FAIR      73  70  92 S5        29.99S
TEMPLE         FAIR      72  70  93 S7        29.99F
KILLEEN        FAIR      72  70  91 S6        29.98F
KILLEEN-SKYLRK FAIR      73  71  93 S6        29.99F
FORT HOOD      FAIR      73  70  91 S6        29.95F FOG
GATESVILLE     FAIR      73  70  88 CALM      30.00F
HAMILTON       FAIR      71  71 100 S8        30.00F
LAMPASAS       FAIR      71  68  90 CALM      29.99F
$$

TXZ095>097-106>112-122>126-135>138-148>153-164>167-251000-
EAST TEXAS

CITY           SKY/WX    TMP DP  RH WIND       PRES   REMARKS
PARIS          FAIR      71  68  90 E3        29.99S
SULPHUR SPRNGS FAIR      75  69  82 S5        30.00S
MOUNT PLEASANT FAIR      70  68  95 CALM      30.00S
GILMER         FAIR      73  69  87 CALM      29.99S
MINEOLA        FAIR      72  68  88 CALM      29.99S
TYLER          FAIR      72  70  93 S6        29.98F
LONGVIEW       FAIR      72  70  93 S5        29.97F
MARSHALL       FAIR      67  65  93 CALM      30.00F
ATHENS         FAIR      72  70  94 CALM      29.98S
PALESTINE      FAIR      73  71  94 CALM      30.00S
JACKSONVILLE   FAIR      72  70  95 S5        30.01F
HENDERSON      FAIR      69  68  96 CALM      30.00S
CENTER         FAIR      68  67  96 CALM      30.00S
NACOGDOCHES      N/A     68  67  96 CALM      30.00F
LUFKIN         FAIR      71  69  93 CALM      29.99F
$$

SUPPLEMENTAL OBSERVATIONS (NWS FORT WORTH AREA)

CITY           SKY/WX    TMP DP  RH WIND       PRES   REMARKS
$$

SUPPLEMENTAL OBSERVATIONS (NWS NORMAN AREA)

CITY           SKY/WX    TMP DP  RH WIND       PRES   REMARKS
GOODLETT         N/A     72  63  73 SE7       29.94F
ODELL            N/A     74  66  78 SE12      29.95F
CROWELL          N/A     73  65  75 S8        29.95F
KNOX CITY        N/A     76  62  61 S12       29.95S
SEYMOUR          N/A     73  64  73 S9        29.95F
$$

SUPPLEMENTAL OBSERVATIONS (NWS SAN ANGELO AREA)

CITY           SKY/WX    TMP DP  RH WIND       PRES   REMARKS
WEINERT          N/A     76  62  61 S14       29.96S
HASKELL          N/A     74  59  58 S9        29.96F
THROCKMORTON     N/A     72  65  79 S7        29.97F
STAMFORD         N/A     75  62  65 S10       29.97S
CLYDE            N/A     71  61  70 S8        30.01F
$$

SUPPLEMENTAL OBSERVATIONS (NWS SHREVEPORT AREA)

CITY           SKY/WX    TMP DP  RH WIND       PRES   REMARKS
$$

SUPPLEMENTAL OBSERVATIONS ARE A COLLECTION OF AUTOMATED INSTRUMENTS
THAT ARE MAINTAINED BY A VARIETY OF FEDERAL AND STATE AGENCIES.
CERTAIN ELEMENTS...SUCH AS HUMIDITY VALUES AND SUSTAINED WIND
SPEEDS...MAY BE APPROXIMATED.





USA.gov is the U.S. government's official web portal to all federal, state and local government web resources and services.